THOR ABLESTAR DEB, 655

Orbit data source: Space-Track

THOR ABLESTAR DEB, 655 is space debris in LEO originally from a launch on Thu, 29 Jun 1961 UTC launched from the Air Force Eastern Test Range (AFETR). Debris objects in space refer to the collection of defunct objects orbiting the Earth. Examples of debris include non-operational satellites, rocket bodies, and fragments generated from explosions, collisions, or faulty payload assembly.

Loading next visibility...
Identifier
655, 1961-015HG
Orbit
LEO
Country
Flag of USUS
Related business
Manufacturer
Unknown
Mission
Spacecraft
Bus & Motor
Unknown
Mass
Unknown
Launch date (UTC)
1961-06-29 (65 years ago)
Launch vehicle
Unknown
Launch site
Air Force Eastern Test Range (AFETR)
Object type
Payload
Rocket body
Debris
Shape & HBR
Unknown shape, 0.1 m
Radar Cross Section
Small (<0.1 m²)

Expand to show TLE details & history
Last TLE update: 10 hours ago

TLE from 10 hours ago
0 THOR ABLESTAR DEB
1 00655U 61015HG  26072.45390609  .00000235  00000-0  61362-3 0  9993
2 00655  67.2561  80.8396 0364164  25.3028 122.0120 13.09491822 74393
Epoch: 2026-03-13T10:53Z
TLE epoch observation values (Epoch: 2026-03-13T10:53:37.486Z)
Latitude
26.81462°
Longitude
-85.82779°
Altitude
1,381.376 km
Speed
7.098 km/s
True Right ascension
16h 34m 40s
True Declination
26° 41' 15"
Sunlit
Object was in daylight at epoch
Visualization orbit readout
Latitude
Unknown
Longitude
Unknown
Altitude
Unknown
Speed
Unknown
Apparent Right ascension
Unknown
Apparent Declination
Unknown
Sunlit
N/A
Visualization observer readout
Local Sidereal Time
01:16:55
Azimuth
Unknown
Elevation
Unknown
Doppler factor
Unknown
Orbital elements
Apogee altitude
1,500.355 km
Perigee altitude
946.704 km
Semi-major axis
7,601.667 km
Eccentricity
0.03642
Inclination
67.2561°
RAAN
80.8396°
Arg. of periapsis
25.3028°
True anomaly
125.46492°
Mean anomaly
122.012°
Eccentric anomaly
123.74693°
Mean motion
3.27476 °/min
Orbital period
109.93 mins
BSTAR
0.00061362
Loading maneuver chart data...
Computing Atmospheric mass density...

Documentation

Showing up to 5 results
|